2013 Jackson Community College Fall Classic

back to results

Aug. 28, 2013

2013 Jackson Community College Fall Classic
Jackson, MI
Provided by Michigan Running Foundation


Overall Finish List - Boys

Boys Varsity 5k


O'all Adj
Place Place Bib No Name Team Time Pace Grade

1 1 115 Roman Blackwell Jackson 17:22.0 5:36/M 11
2 2 75 Alberto Gomez Holt 17:46.4 5:44/M 11
3 3 71 Grant Colligan Holt 17:54.6 5:46/M 12
4 (< 5) 138 Ian Daugherty Jackson Christian 18:04.4 5:50/M 12
5 4 249 Kyle Allen Napoleon 18:07.6 5:51/M 12
6 5 79 Zach Hulliberger Holt 18:15.9 5:53/M 12
7 6 147 Karl Berkemeier Jackson Lumen Christi 18:24.8 5:56/M 12
8 7 31 Mitch Kolito DeWitt 18:27.2 5:57/M 11
9 8 163 Patrick Soltis Jackson Lumen Christi 18:35.5 6:00/M 12
10 9 72 Mark Danks Holt 18:51.8 6:05/M 11
11 10 265 Ryan Silvestri Napoleon 18:55.0 6:06/M 11
12 11 153 Ryan Gibson Jackson Lumen Christi 18:56.0 6:06/M 11
13 12 264 Connor Silvestri Napoleon 19:05.1 6:09/M 10
14 13 8 Christopher Kangas Adrian Madison 19:09.1 6:11/M 11
15 14 39 Balion Powell DeWitt 19:10.2 6:11/M 10
16 15 256 Billy Dowd Napoleon 19:13.8 6:12/M 10
17 16 224 Austin Muylle Lansing Eastern 19:20.3 6:14/M 9
18 17 124 Robert Kunselman Jackson 19:32.4 6:18/M 9
19 18 268 Andrew White Napoleon 19:40.5 6:21/M 12
20 19 43 Aaron Scheffler DeWitt 19:44.7 6:22/M 12
21 20 116 Alec Briggs Jackson 19:50.2 6:24/M 12
22 21 119 Jack Dulworth Jackson 19:50.8 6:24/M 10
23 22 120 Andrew Garver Jackson 19:52.1 6:25/M 11
24 23 149 Kristopher Cavender Jackson Lumen Christi 19:56.0 6:26/M 11
25 24 263 Shayne Palmer Napoleon 20:06.9 6:29/M 11
26 25 6 David Gilbert Adrian Madison 20:09.7 6:30/M 11
27 26 148 Nadji Butris Jackson Lumen Christi 20:12.9 6:31/M 10
28 27 77 David Hefty Holt 20:13.8 6:31/M 10
29 28 88 Nathan Wehrle Holt 20:15.9 6:32/M 10
30 29 128 Damian Yoxheimer Jackson 20:23.5 6:35/M 11
31 30 154 Alex Hoop Jackson Lumen Christi 20:29.2 6:36/M 11
32 31 226 Alejandro Salais Lansing Eastern 20:38.1 6:39/M 9
33 32 74 Sean Gibbons Holt 20:46.7 6:42/M 9
34 33 151 Isaac Cooper Jackson Lumen Christi 20:54.4 6:45/M 9
35 34 9 Jason McGinnis Adrian Madison 21:02.6 6:47/M 11
36 35 21 Nate Templeman DeWitt 21:22.8 6:54/M 9
37 (< 5) 142 Jonathan Williams Jackson Christian 21:23.1 6:54/M 12
38 36 2 Michael Burciaga Adrian Madison 21:43.3 7:00/M 10
39 37 7 Ben Kangas Adrian Madison 21:54.6 7:04/M 9
40 38 41 Joshua Ryan DeWitt 22:03.8 7:07/M 10
41 39 205 Devon Walsh Jackson Northwest 22:09.8 7:09/M 10
42 40 26 Isaac Evans DeWitt 22:32.6 7:16/M 9
43 41 221 Nick Kilpatrick Lansing Eastern 22:40.0 7:19/M 12
44 (< 5) 240 Austin Wilson Manchester 22:42.6 7:19/M 10
45 (< 5) 235 John Beuerle Manchester 22:48.1 7:21/M 10
46 42 222 Brian King Lansing Eastern 22:48.3 7:21/M 12
47 43 204 Todd Moody Jackson Northwest 22:55.7 7:24/M 9
48 (< 5) 141 Andrew Tippin Jackson Christian 23:02.2 7:26/M 12
49 44 5 Alex Garcia Adrian Madison 23:52.2 7:42/M 9
50 45 199 Joey Dodge Jackson Northwest 24:17.1 7:50/M 9
51 46 33 Jacob Lentz DeWitt 24:18.3 7:50/M 12
52 47 215 Paul Chaney Lansing Eastern 24:20.8 7:51/M 12
53 48 202 Tyler Hall Jackson Northwest 24:29.6 7:54/M 12
54 49 223 Max Murthum Lansing Eastern 25:40.3 8:17/M 12
55 50 1 John Ambrose Adrian Madison 25:52.4 8:21/M 10
56 51 198 Tyler Blakenship Jackson Northwest 27:40.2 8:55/M 12
57 52 200 Tyler Dodge Jackson Northwest 27:50.0 8:59/M 9
58 53 126 Graham Peterson Jackson 27:59.3 9:02/M 12
59 54 225 Amari Roper Lansing Eastern 31:28.7 10:09/M 12


Boys Varsity 5k


Top 5 ------- Finishers -------
Place Team Places 1 2 3 4 5 6* 7*

1 Holt 46 2 3 5 9 27 28 32
Top 5 Times: 1:33:02.8
Average Time: 18:36.5

2 Napoleon 59 4 10 12 15 18 24
Top 5 Times: 1:35:02.0
Average Time: 19:00.4

3 Jackson Lumen Christi 74 6 8 11 23 26 30 33
Top 5 Times: 1:36:05.3
Average Time: 19:13.0

4 Jackson 81 1 17 20 21 22 29 53
Top 5 Times: 1:36:27.8
Average Time: 19:17.5

5 DeWitt 113 7 14 19 35 38 40 46
Top 5 Times: 1:40:48.9
Average Time: 20:09.7

6 Adrian Madison 145 13 25 34 36 37 44 50
Top 5 Times: 1:43:59.4
Average Time: 20:47.9

7 Lansing Eastern 177 16 31 41 42 47 49 54
Top 5 Times: 1:49:47.6
Average Time: 21:57.5

8 Jackson Northwest 226 39 43 45 48 51 52
Top 5 Times: 2:01:32.6
Average Time: 24:18.5

Inc. Jackson Christian 3 finishers
Top 5 Times:
Average Time:

Inc. Manchester 2 finishers
Top 5 Times:
Average Time:




Overall Finish List - Girls

Girls Varsity 5K


O'all Adj
Place Place Bib No Name Team Time Pace Grade

1 1 62 Shelby Waterson DeWitt 21:10.9 6:50/M 11
2 2 189 Aubrey Penn Jackson Lumen Christi 21:16.2 6:52/M 11
3 3 168 Caitlin Clark Jackson Lumen Christi 21:26.5 6:55/M 11
4 4 241 Alia Benedict Manchester 21:53.0 7:04/M 11
5 (< 5) 212 Taylor Roberts Jackson Northwest 22:03.0 7:07/M 12
6 5 96 Abbey Houser Holt 22:24.5 7:14/M 10
7 6 59 Emily Murdoch DeWitt 22:28.4 7:15/M 12
8 7 274 Mckenzie Smoyer Napoleon 22:29.4 7:15/M 10
9 8 185 Jensen McEldowney Jackson Lumen Christi 22:35.6 7:17/M 10
10 9 57 Jordan Lee DeWitt 22:38.0 7:18/M 11
11 10 278 Kaniya Weatherspoon Napoleon 23:00.0 7:25/M 11
12 11 105 Courtney Masseau Holt 23:03.2 7:26/M 12
13 12 101 Emily Krueger Holt 23:06.9 7:27/M 12
14 13 270 Sydney Coe Napoleon 23:10.9 7:28/M 9
15 14 272 Miranda Hamman Napoleon 23:13.9 7:29/M 11
16 15 197 Emily Yoxheimer Jackson Lumen Christi 23:17.8 7:31/M 11
17 16 18 Megan Rosales Adrian Madison 23:18.0 7:31/M 9
18 17 46 Shelby Allen DeWitt 23:27.5 7:34/M 12
19 18 53 Callee Fisher DeWitt 23:30.8 7:35/M 10
20 19 191 Riley Raburn Jackson Lumen Christi 23:33.8 7:36/M 10
21 20 92 Megan Colligan Holt 23:44.8 7:39/M 11
22 21 99 Megan Kline Holt 23:48.9 7:41/M 10
23 (< 5) 135 Grecia Quiroga Jackson 23:54.7 7:43/M 12
24 22 269 Alaina Albert Napoleon 24:02.3 7:45/M 11
25 23 232 Kirsten Smith Lansing Eastern 24:05.4 7:46/M 11
26 24 114 Leanna Wehrle Holt 24:06.8 7:46/M 10
27 25 177 Emily Hawkins Jackson Lumen Christi 24:16.6 7:50/M 11
28 26 49 Ashley Brzozowski DeWitt 24:19.1 7:51/M 10
29 27 273 Hannah Reynard Napoleon 24:32.3 7:55/M 12
30 (< 5) 144 Lydia Haavisto Jackson Christian 25:31.0 8:14/M 10
31 28 242 Sasha Brown Manchester 25:35.0 8:15/M 9
32 29 187 Mckena O'Shea Jackson Lumen Christi 25:45.3 8:18/M 9
33 30 271 Madison Dean Napoleon 25:50.2 8:20/M 10
34 31 12 Rita Dehoyos Adrian Madison 25:51.8 8:20/M 11
35 32 16 Megan McTaggart Adrian Madison 26:07.1 8:25/M 11
36 33 91 Maddie Bostwick Holt 26:24.6 8:31/M 10
37 34 58 Bailee Morgan DeWitt 26:36.9 8:35/M 12
38 35 244 Taylor Fegan Manchester 26:37.1 8:35/M 12
39 36 230 Katie Murdoch Lansing Eastern 26:37.4 8:35/M 12
40 37 13 Callie Halsey Adrian Madison 27:31.0 8:53/M 9
41 38 246 Rachel Heuser Manchester 27:44.2 8:57/M 11
42 (< 5) 207 Faith Boulter Jackson Northwest 28:15.7 9:07/M 10
43 39 11 Janice Cabrera Adrian Madison 28:23.0 9:09/M 12
44 (< 5) 129 Heather Cummings Jackson 28:47.7 9:17/M 11
45 (< 5) 137 Jane Toll Jackson 29:15.6 9:26/M 11
46 (< 5) 213 Allegra Ward Jackson Northwest 29:43.3 9:35/M 10
47 40 19 Stevie Rosales Adrian Madison 30:03.8 9:42/M 12
48 41 229 Deborah Mliakoff Lansing Eastern 30:20.4 9:47/M 11
49 42 17 Keeley Pape Adrian Madison 30:37.8 9:53/M 9
50 43 245 Crystal Hall Manchester 30:40.3 9:54/M 9
51 (< 5) 208 Tessa Gauither Jackson Northwest 30:48.7 9:56/M 10
52 44 234 Aubrey Woldt Lansing Eastern 31:15.1 10:05/M 12
53 45 233 Katlyn Tews Lansing Eastern 31:24.3 10:08/M 9
54 46 248 Kassidy Zimmer Manchester 31:30.5 10:10/M 10
55 47 228 Roberta Glennon Lansing Eastern 32:07.9 10:22/M 9
56 48 231 Kayleen Petrovia Lansing Eastern 32:40.6 10:32/M 10


Team Summary Report - Girls

Girls Varsity 5K


Top 5 ------- Finishers -------
Place Team Places 1 2 3 4 5 6* 7*

1 Jackson Lumen Christi 47 2 3 8 15 19 25 29
Top 5 Times: 1:52:10.1
Average Time: 22:26.0

2 DeWitt 51 1 6 9 17 18 26 34
Top 5 Times: 1:53:15.9
Average Time: 22:39.1

3 Napoleon 66 7 10 13 14 22 27 30
Top 5 Times: 1:55:56.7
Average Time: 23:11.3

4 Holt 69 5 11 12 20 21 24 33
Top 5 Times: 1:56:08.5
Average Time: 23:13.7

5 Manchester 148 4 28 35 38 43 46
Top 5 Times: 2:12:29.8
Average Time: 26:29.9

6 Adrian Madison 155 16 31 32 37 39 40 42
Top 5 Times: 2:11:11.2
Average Time: 26:14.2

7 Lansing Eastern 189 23 36 41 44 45 47 48
Top 5 Times: 2:23:42.9
Average Time: 28:44.5

Inc. Jackson 3 finishers
Top 5 Times:
Average Time:

Inc. Jackson Christian 1 finishers
Top 5 Times:
Average Time:

Inc. Jackson Northwest 4 finishers
Top 5 Times:
Average Time:



Overall Finish List - Boys

JV Boys 5k


O'all Adj
Place Place Bib No Name Team Time Pace Grade

1 1 68 Justin Buck Holt 20:20.2 6:34/M 10
2 2 64 Tyler Bigelow Holt 20:57.5 6:45/M 11
3 3 117 Danny Carrasquillo Jackson 21:25.4 6:55/M 12
4 4 261 Ty McCrum Napoleon 21:30.9 6:56/M 10
5 5 267 Zeke Tomblin Napoleon 21:53.7 7:04/M 11
6 6 76 Kyle Harkema Holt 22:05.0 7:07/M 12
7 7 253 Connor Dean Napoleon 22:06.9 7:08/M 10
8 8 67 Jordan Buck Holt 22:07.1 7:08/M 10
9 9 32 Henry Lee DeWitt 22:23.3 7:13/M 12
10 10 250 Alex Bennett Napoleon 22:27.8 7:15/M 10
11 11 84 Levi Petersen Holt 22:36.1 7:17/M 10
12 12 42 Bryce Schafer DeWitt 22:37.9 7:18/M 9
13 13 69 Aaron Centofanti Holt 22:48.7 7:21/M 11
14 14 121 John Girkin Jackson 22:50.1 7:22/M 10
15 15 28 Bryce Fisher DeWitt 22:50.8 7:22/M 9
16 16 156 Trevor Norkey Jackson Lumen Christi 22:54.5 7:23/M 12
17 17 254 Anthony Doerr Napoleon 23:00.4 7:25/M 11
18 18 257 Connor Fellows Napoleon 23:03.6 7:26/M 12
19 19 80 Patrick Johnson Holt 23:07.9 7:27/M 11
20 (> 7) 65 Nathan Bondi Holt 23:11.9 7:29/M 10
21 20 150 Nick Chames Jackson Lumen Christi 23:14.1 7:30/M 12
22 21 266 Ryan Timm Napoleon 23:20.1 7:32/M 10
23 22 219 Tom Hundt Lansing Eastern 23:20.8 7:32/M 10
24 23 40 Brett Robbins DeWitt 23:22.5 7:32/M 12
25 24 160 Nick Seffernick Jackson Lumen Christi 23:27.4 7:34/M 11
26 25 20 Ryan Armbrustmacher DeWitt 23:33.1 7:36/M 9
27 26 29 James French DeWitt 23:35.6 7:36/M 11
28 (> 7) 85 Noah Richards Holt 23:38.8 7:37/M 9
29 (> 7) 259 Brendan Hunt Napoleon 23:47.7 7:40/M 11
30 27 161 John Slough Jackson Lumen Christi 23:54.7 7:43/M 10
31 (> 7) 70 Andrez Chuney Holt 24:02.4 7:45/M 9
32 28 127 Brett Trombley Jackson 24:04.6 7:46/M 11
33 29 23 Dakota Dietz DeWitt 24:10.8 7:48/M 9
34 (> 7) 73 James Fulghum Holt 24:25.5 7:53/M 12
35 30 227 Jerrell Wells Lansing Eastern 24:26.7 7:53/M 9
36 31 118 Caleb Dueck Jackson 24:29.2 7:54/M 10
37 (> 7) 45 Spencer Wamsley DeWitt 24:38.9 7:57/M 9
38 32 217 Josh Cole Lansing Eastern 24:43.0 7:58/M 10
39 (> 7) 251 Hirth Dan Napoleon 24:45.7 7:59/M 9
40 (> 7) 78 Jacob Hillman Holt 24:47.6 8:00/M 9
41 (> 7) 34 Nathan Lentz DeWitt 24:51.2 8:01/M 10
42 (> 7) 258 Chris Groesbeck Napoleon 24:56.5 8:03/M 10
43 33 214 Robert Barnett Lansing Eastern 24:58.4 8:03/M 9
44 34 157 Daniel Nowinski Jackson Lumen Christi 25:00.1 8:04/M 12
45 (> 7) 262 Elijah Ong Napoleon 25:07.9 8:06/M 11
46 35 123 Alex Johnson Jackson 25:08.7 8:06/M 11
47 (> 7) 30 Evan Hamp DeWitt 25:18.5 8:10/M 9
48 (> 7) 87 Nathaniel Webber Holt 25:27.2 8:13/M 10
49 (> 7) 260 Joel Johnson Napoleon 25:47.5 8:19/M 9
50 36 125 Conor Mulhearn Jackson 26:00.9 8:23/M 9
51 37 155 Matt Munie Jackson Lumen Christi 26:05.2 8:25/M 11
52 (> 7) 252 White David Napoleon 26:41.7 8:36/M 9
53 (> 7) 38 Zach Norris DeWitt 26:54.7 8:41/M 12
54 (> 7) 25 Michael Eva DeWitt 27:04.5 8:44/M 9
55 (< 5) 139 Andrew Hamilton Jackson Christian 27:04.7 8:44/M 9
56 38 152 Scott Fitzgerald Jackson Lumen Christi 27:21.5 8:49/M 10
57 (> 7) 24 Brendan Edie DeWitt 27:58.6 9:01/M 9
58 (< 5) 140 Andrew Jackson Jackson Christian 28:17.7 9:07/M 9
59 39 220 Isaac Jason Lansing Eastern 29:16.5 9:26/M 9
60 40 216 Ryan Tranthum Lansing Eastern 29:27.4 9:30/M 12
61 (> 7) 66 Zach Brundage Holt 36:12.8 11:41/M 10
62 (< 5) 3 Josh Counts Adrian Madison 39:25.5 12:43/M 9

Team Summary Report - Boys

JV Boys 5k


Top 5 ------- Finishers -------
Place Team Places 1 2 3 4 5 6* 7*

1 Holt 28 1 2 6 8 11 13 19
Top 5 Times: 1:48:06.2
Average Time: 21:37.2

2 Napoleon 43 4 5 7 10 17 18 21
Top 5 Times: 1:50:59.8
Average Time: 22:11.9

3 DeWitt 84 9 12 15 23 25 26 29
Top 5 Times: 1:54:47.8
Average Time: 22:57.5

4 Jackson 111 3 14 28 31 35 36
Top 5 Times: 1:57:58.1
Average Time: 23:35.6

5 Jackson Lumen Christi 121 16 20 24 27 34 37 38
Top 5 Times: 1:58:31.0
Average Time: 23:42.2

6 Lansing Eastern 156 22 30 32 33 39 40
Top 5 Times: 2:06:45.6
Average Time: 25:21.1

Inc. Adrian Madison 1 finishers
Top 5 Times:
Average Time:

Inc. Jackson Christian 2 finishers
Top 5 Times:
Average Time:




Overall Finish List - Girls

JV Girls 5k


O'all Adj
Place Place Bib No Name Team Time Pace Grade

1 1 184 Shannon McDonnell Jackson Lumen Christi 24:52.2 8:01/M 10
2 2 110 Elise Richards Holt 24:54.8 8:02/M 9
3 3 190 Sarah Prevost Jackson Lumen Christi 24:58.8 8:03/M 9
4 4 98 Taylor Jordan Holt 25:28.9 8:13/M 12
5 (< 5) 145 Mary Hawthorne Jackson Christian 25:41.8 8:17/M 9
6 5 169 Brenna Coffman Jackson Lumen Christi 26:10.0 8:26/M 10
7 6 172 Catherine Daly Jackson Lumen Christi 26:13.6 8:27/M 12
8 7 173 Kelsey Daniels Jackson Lumen Christi 26:55.7 8:41/M 10
9 8 193 Melany Rochester Jackson Lumen Christi 26:56.4 8:41/M 10
10 9 48 Riley Bosanic DeWitt 26:59.3 8:42/M 9
11 10 186 Blake Newman Jackson Lumen Christi 27:09.3 8:45/M 10
12 11 89 Emily Baswell Holt 27:12.2 8:46/M 11
13 (> 7) 176 Beth Hartley Jackson Lumen Christi 27:14.9 8:47/M 12
14 (> 7) 174 Sydney Eder Jackson Lumen Christi 27:29.0 8:52/M 10
15 12 56 Chandler Kirinovic DeWitt 28:04.3 9:03/M 11
16 13 109 Allie Piper Holt 28:14.4 9:06/M 9
17 (> 7) 192 Sarah Richards Jackson Lumen Christi 28:18.7 9:08/M 11
18 (< 5) 276 Sarah Sziraki Napoleon 28:34.7 9:13/M 10
19 (> 7) 167 Michelle Chaney Jackson Lumen Christi 28:47.5 9:17/M 11
20 14 93 Mackenzie Dudek Holt 28:58.3 9:21/M 12
21 15 108 Melissa Ostrowski Holt 29:04.2 9:23/M 12
22 16 47 Frankie Bosanic DeWitt 29:07.0 9:24/M 10
23 17 55 Madison Hawkey DeWitt 29:18.0 9:27/M 12
24 18 100 Chloe Knop Holt 29:25.3 9:29/M 9
25 (> 7) 103 Claire Lewis Holt 29:26.0 9:30/M 9
26 (> 7) 104 Kassi Loveless Holt 29:26.8 9:30/M 10
27 (> 7) 182 Sarah Lorenz Jackson Lumen Christi 29:53.4 9:38/M 11
28 (< 5) 275 Nicole Sziraki Napoleon 30:00.2 9:41/M 12
29 (> 7) 279 Pia Schnarkowski Jackson Lumen Christi 30:14.3 9:45/M 10
30 19 61 Jessie Ramos DeWitt 30:23.0 9:48/M 9
31 (> 7) 194 Hannah Sauter Jackson Lumen Christi 30:45.0 9:55/M 12
32 (> 7) 166 Caitlin Brys Jackson Lumen Christi 31:44.4 10:14/M 11
33 20 60 Alexa Phillips DeWitt 31:55.2 10:18/M 11
34 (> 7) 102 Caitlin Lentz Holt 32:01.9 10:20/M 12
35 (> 7) 175 Kim Fox Jackson Lumen Christi 32:02.1 10:20/M 11
36 (> 7) 195 Anna Soltis Jackson Lumen Christi 32:18.9 10:25/M 10
37 (> 7) 113 Adriana Wagner Holt 32:36.1 10:31/M 9
38 (> 7) 97 Mackenzie James Holt 32:45.8 10:34/M 10
39 (> 7) 111 Rachael Ruthruff Holt 33:00.9 10:39/M 9
40 (> 7) 107 Kelsie Montgomery Holt 33:06.1 10:41/M 9
41 (> 7) 188 Ellen Osterhous Jackson Lumen Christi 33:25.8 10:47/M 11
42 21 63 Stephanie Weber DeWitt 34:16.2 11:03/M 9
43 (> 7) 52 Harley Curtiss DeWitt 34:17.6 11:04/M 10
44 (< 5) 277 Ella Warolin Napoleon 34:42.1 11:12/M 10
45 (> 7) 94 Sera Heft Holt 35:02.9 11:18/M 11
46 (> 7) 90 Shayna Blust Holt 35:32.6 11:28/M 11
47 (> 7) 178 Emma Hrebec Jackson Lumen Christi 35:48.4 11:33/M 11
48 (< 5) 15 Dema Martinez Adrian Madison 38:35.2 12:27/M 11
49 (< 5) 133 Ashley Mathias Jackson 38:46.1 12:30/M 10
50 (< 5) 146 Kim Pulka Jackson Christian 39:01.6 12:35/M 9
51 (> 7) 112 Brooke Swejkowski Holt 42:41.9 13:46/M 9

Team Summary Report - Girls

JV Girls 5k


Top 5 ------- Finishers -------
Place Team Places 1 2 3 4 5 6* 7*

1 Jackson Lumen Christi 22 1 3 5 6 7 8 10
Top 5 Times: 2:09:10.5
Average Time: 25:50.1

2 Holt 44 2 4 11 13 14 15 18
Top 5 Times: 2:14:48.7
Average Time: 26:57.7

3 DeWitt 73 9 12 16 17 19 20 21
Top 5 Times: 2:23:51.8
Average Time: 28:46.3

Inc. Adrian Madison 1 finishers
Top 5 Times:
Average Time:

Inc. Jackson 1 finishers
Top 5 Times:
Average Time:

Inc. Jackson Christian 2 finishers
Top 5 Times:
Average Time:

Inc. Napoleon 3 finishers
Top 5 Times:
Average Time: